Home   Weather   Raleigh   Past weeks
Flag for USA

Past Weather in Raleigh, North Carolina, USA — Yesterday and Last 2 Weeks

Now
72 °F

Overcast.


Feels Like: 74 °F
Forecast: 91 / 70 °F
Wind: 3 mph from South

Location: Raleigh-Durham International Airport

Current Time: May 25, 2019 at 7:34:05 am

Latest Report: May 25, 2019 at 6:51 am


Visibility: 10 mi

Pressure: 30.14 "Hg

Humidity: 71%

Dew Point: 62 °F

Location of RaleighLocation

Past Weather in Raleigh — Graph

°F

Raleigh Temperature Yesterday

Maximum temperature yesterday: 93 °F (at 2:51 pm)
Minimum temperature yesterday: 69 °F (at 5:51 am)
Average temperature yesterday: 81 °F

High & Low Weather Summary for the Past Weeks

 TemperatureHumidityPressure
High93 °F (May 24, 2:51 pm)100% (May 13, 10:51 am)30.29 "Hg (May 13, 10:51 am)
Low44 °F (May 15, 5:51 am)32% (May 15, 2:51 pm)29.68 "Hg (May 13, 9:33 am)
Average71 °F70%29.98 "Hg
* Reported May 10 5:51 am — May 25 5:51 am, Raleigh. Weather by CustomWeather, © 2019

Note: Actual official high and low records may vary slightly from our data, if they occured in-between our weather recording intervals... More about our weather records

Advertising

Raleigh Weather History for the Previous 24 Hours

Scroll right to see more
 ConditionsComfort  
Time TempWeatherWind HumidityBarometerVisibility
5:51 am
Sat, May 25
72 °FOvercast.3 mph71%30.12 "Hg10 mi
4:51 am73 °FClear.6 mph69%30.09 "Hg10 mi
3:51 am74 °FClear.8 mph71%30.06 "Hg10 mi
2:51 am75 °FPassing clouds.13 mph76%30.04 "Hg9 mi
1:51 am74 °FPassing clouds.3 mph79%30.05 "Hg9 mi
12:51 am73 °FPassing clouds.No wind81%30.06 "Hg10 mi
11:51 pm
Fri, May 24
79 °FPassing clouds.No wind67%30.06 "Hg10 mi
10:51 pm77 °FPassing clouds.No wind71%30.07 "Hg10 mi
9:51 pm79 °FPassing clouds.No wind69%30.06 "Hg10 mi
8:51 pm79 °FPassing clouds.No wind69%30.05 "Hg10 mi
7:51 pm89 °FPartly sunny.No wind43%30.03 "Hg10 mi
6:51 pm89 °FPartly sunny.No wind53%30.01 "Hg10 mi
5:51 pm90 °FScattered clouds.9 mph50%30.02 "Hg10 mi
4:51 pm91 °FScattered clouds.7 mph44%30.01 "Hg10 mi
3:51 pm92 °FScattered clouds.10 mph44%30.02 "Hg10 mi
2:51 pm93 °FScattered clouds.12 mph42%30.03 "Hg10 mi
1:51 pm91 °FPartly sunny.10 mph44%30.04 "Hg10 mi
12:51 pm90 °FPartly sunny.9 mph43%30.06 "Hg10 mi
11:51 am88 °FPartly sunny.7 mph54%30.06 "Hg10 mi
10:51 am87 °FPartly sunny.7 mph57%30.08 "Hg10 mi
9:51 am81 °FScattered clouds.8 mph72%30.09 "Hg10 mi
8:51 am78 °FPartly sunny.7 mph79%30.08 "Hg10 mi
7:51 am74 °FPartly sunny.8 mph85%30.08 "Hg10 mi
Weather by CustomWeather, © 2019

See weather overview